Powrót do katalogu

CZ-6A DEB

AktywnyPO
NORAD 61396·DEBRIS·🇨🇳 China

Wystrzelony Aug 6, 2024 z Taiyuan Satellite Launch Center

Loading…

Następne Przeloty (najbliższe 24 godziny)

TLE

ŚwieżeSource: Space-Track

Epoka: Sep 13, 2026, 23:59 UTC

1 61396U 24140XM  26256.99958468  .00001906  00000-0  27360-3 0  9992
2 61396  89.0574 263.9037 0138331 211.6823 147.6017 14.69649632107635

Śledź CZ-6A DEB w czasie rzeczywistym z AllMySat

Download on the App Store